Time,TemperatureF,DewpointF,PressureIn,WindDirection,WindDirectionDegrees,WindSpeedMPH,WindSpeedGustMPH,Humidity,HourlyPrecipIn,Conditions,Clouds,dailyrainin,SolarRadiationWatts/m^2,SoftwareType,DateUTC
2013-04-17 00:00:00,26.0,-99.9,44.89,NW,315,5.0,14.0,-999,-99.99,,,0.00,0.000000,,2013-04-17 07:00:00,
2013-04-17 01:00:00,24.0,-99.9,44.89,NW,323,3.0,11.0,-999,-99.99,,,-99.99,0.000000,,2013-04-17 08:00:00,
2013-04-17 02:00:00,23.0,-99.9,44.89,NNW,340,2.0,8.0,-999,-99.99,,,-99.99,0.000000,,2013-04-17 09:00:00,
2013-04-17 03:00:00,23.0,-99.9,44.89,NNE,12,3.0,10.0,-999,-99.99,,,-99.99,0.000000,,2013-04-17 10:00:00,
2013-04-17 04:00:00,22.0,-99.9,-100.00,NNE,19,3.0,11.0,-999,-99.99,,,-99.99,0.000000,,2013-04-17 11:00:00,
2013-04-17 04:52:00,22.0,-99.9,-100.00,NNE,19,3.0,11.0,-999,-99.99,,,-99.99,0.000000,,2013-04-17 11:52:00,
2013-04-17 06:00:00,22.0,-99.9,44.89,North,350,3.0,13.0,-999,-99.99,,,0.00,7.000000,,2013-04-17 13:00:00,
2013-04-17 07:00:00,23.0,-99.9,44.89,WNW,300,2.0,7.0,-999,-99.99,,,-99.99,1.500000,,2013-04-17 14:00:00,
2013-04-17 08:00:00,26.0,-99.9,44.89,WNW,302,3.0,9.0,-999,-99.99,,,0.00,11.600000,,2013-04-17 15:00:00,
2013-04-17 09:00:00,26.0,-99.9,44.89,NNW,348,2.0,7.0,-999,-99.99,,,0.00,20.500000,,2013-04-17 16:00:00,
2013-04-17 10:00:00,25.0,-99.9,44.89,North,10,2.0,9.0,-999,-99.99,,,0.00,19.200001,,2013-04-17 17:00:00,
2013-04-17 11:00:00,26.0,-99.9,44.89,WNW,298,4.0,10.0,-999,-99.99,,,-99.99,48.799999,,2013-04-17 18:00:00,
2013-04-17 12:00:00,25.0,-99.9,44.89,NW,308,4.0,11.0,-999,-99.99,,,0.01,36.900002,,2013-04-17 19:00:00,
2013-04-17 13:00:00,26.0,-99.9,44.89,SE,131,3.0,12.0,-999,-99.99,,,-99.99,22.000000,,2013-04-17 20:00:00,
2013-04-17 14:00:00,28.0,-99.9,44.89,ENE,73,3.0,12.0,-999,-99.99,,,-99.99,26.900000,,2013-04-17 21:00:00,
2013-04-17 15:00:00,25.0,-99.9,44.89,NNE,19,3.0,13.0,-999,-99.99,,,0.00,26.600000,,2013-04-17 22:00:00,
2013-04-17 16:00:00,27.0,-99.9,44.89,NNE,32,2.0,13.0,-999,-99.99,,,0.00,17.700001,,2013-04-17 23:00:00,
2013-04-17 17:00:00,25.0,-99.9,44.89,SE,125,2.0,10.0,-999,-99.99,,,-99.99,10.400000,,2013-04-18 00:00:00,
2013-04-17 18:00:00,26.0,-99.9,44.89,East,92,2.0,8.0,-999,-99.99,,,0.00,9.800000,,2013-04-18 01:00:00,
2013-04-17 19:00:00,23.0,-99.9,44.89,South,179,2.0,6.0,-999,-99.99,,,0.00,2.400000,,2013-04-18 02:00:00,
2013-04-17 20:00:00,22.0,-99.9,44.89,SSE,159,1.0,7.0,-999,-99.99,,,0.00,0.000000,,2013-04-18 03:00:00,
2013-04-17 21:00:00,20.0,-99.9,44.89,SSE,148,1.0,9.0,-999,-99.99,,,-99.99,0.000000,,2013-04-18 04:00:00,
2013-04-17 22:00:00,21.0,-99.9,44.89,South,188,1.0,6.0,-999,-99.99,,,0.00,0.000000,,2013-04-18 05:00:00,
2013-04-17 23:00:00,20.0,-99.9,44.89,WSW,242,2.0,7.0,-999,-99.99,,,0.00,0.000000,,2013-04-18 06:00:00,